Location: Detroit
(42.3310°N, 83.0460°W)
Time: 14:18:35
(UTC-05:00)

X-37B - Pass Details

Date: 10 December 2021
Orbit: 334 x 337 km, 45.0° (Epoch: 11 January)

Event Time Altitude Azimuth Distance (km) Brightness Sun altitude
Rises 19:18:55 0° 277° (W) 2,103 5.5 -24.9°
Reaches altitude 10° 19:20:58 10° 284° (WNW) 1,266 4.0 -25.3°
Enters shadow 19:21:39 16° 289° (WNW) 1,001 3.4 -25.4°
